STARLINK-5314 (55678 NORAD) Tracking and Keplerian Element Data

This shows tracking and keplerian element data for the satellite.

Feedback or suggestion? Click here.




ElementValue
Catalog55678
NameSTARLINK-5314
Epoch Orbit625
Epoch Day85.16872744
Epoch Year2023
RAAN47.5841
Inclination69.9994
Eccentricity0.0003157
Argument of Perigee254.9331
Mean Anonmoly105.1515
Mean Motion15.69937673
Decay Rate-1.671E-05
L11 55678U 23021BC 23085.16872744 -.00001671 00000+0 -12124-4 0 9996
L22 55678 69.9994 47.5841 0003157 254.9331 105.1515 15.69937673 6258



Live tracking and technical data element details for STARLINK-5314 (NORAD 55678). STARLINK-5314 can be tracked NOW for your location showing map with azimuth and elevation plus other details from your city location.







IsCatalogInMostPopularTable: catalog: 55678, numindb: 2
Update: records affected: 1



GetName: 55678 STARLINK-5314

Hit Count: updated at: Tue, 28 Mar 2023 02:05:57 GMT